Find Starlink 11550

NORAD ID: 63052 Int'l Des: 2025-035 Owner: SPXS Country: US Constellation: starlink operational
LEOCIRCULAR

Current View

Loading 3D Globe...

About Starlink 11550

Starlink 11550 (NORAD 63052) is a starlink constellation satellite (v2 mini d2c) launched Feb 21, 2025 by SPXS of US. It operates in LEO, CIRCULAR orbit with a mass of 960.00 kg.

About Starlink 11550

Description loading...

Upcoming Passes

Passes for default location (London). Set your location on the main map for personalized predictions.

Altitude History

Loading altitude history...

Two-Line Element Set

1 63052U 25035A 26169.59863915 .00153803 00000-0 11794-2 0 9995
2 63052 43.0005 126.8846 0000549 353.4369 6.6492 15.70853765 77093
Epoch: Jun 18, 2026 • Age: 9 hours

Current Status

Altitude 369.3 km
Velocity 7.69 km/s
Sub-Earth Point -42.63°S, 129.87°E
Launch Date Feb 21, 2025
Age 1.3 years
Type internet

Technical Details

Classification Payload
Mass 960.00 kg
Dry Mass 910.00 kg
Total Mass 960.00 kg
Length 0.30 m
Diameter 4.10 m
Span 29.00 m
Shape Box + pan
Manufacturer SPXS
Bus Type Starlink V2MD
Phase Status In Orbit
Owner/State SPXS/US

Most Searched